CW2751 Weather Reports


Display with metric or nautical units.
time (UTC)temp
F
wind
direction
speed
MPH
gust
MPH
rain 1hr
in
rain 24hr
in
rain mn
in
humidity
%
barometer
mb
20260906020048 84 107 2.0 0.0 0.00 0.00 0.00 45 1001.8
20260906014544 85 162 1.0 0.0 0.00 0.00 0.00 43 1001.7
20260906013042 86 165 1.0 0.0 0.00 0.00 0.00 42 1001.5
20260906011512 87 102 1.0 0.0 0.00 0.00 0.00 40 1001.3
20260906010016 88 142 2.0 0.0 0.00 0.00 0.00 39 1001.6
20260906004540 88 205 2.0 0.0 0.00 0.00 0.00 37 1001.0
20260906003046 89 117 3.0 0.0 0.00 0.00 0.00 36 1000.8
20260906001503 89 198 4.0 0.0 0.00 0.00 0.00 35 1000.5
20260906000006 90 175 4.0 0.0 0.00 0.00 0.00 35 1000.5
20260905234525 91 135 4.0 0.0 0.00 0.00 0.00 31 1000.6
20260905233050 93 179 5.0 0.0 0.00 0.00 0.00 29 1000.3
20260905231553 96 181 6.0 0.0 0.00 0.00 0.00 26 1000.1
20260905230055 96 181 5.0 0.0 0.00 0.00 0.00 25 999.7
20260905224558 96 151 7.0 0.0 0.00 0.00 0.00 26 999.5
20260905223052 96 151 6.0 0.0 0.00 0.00 0.00 28 999.4
20260905221550 96 142 6.0 0.0 0.00 0.00 0.00 27 999.5
20260905220020 96 120 5.0 0.0 0.00 0.00 0.00 28 999.6
20260905214523 96 203 6.0 0.0 0.00 0.00 0.00 27 999.6
20260905213021 96 148 6.0 0.0 0.00 0.00 0.00 27 999.7
20260905211546 95 127 7.0 0.0 0.00 0.00 0.00 28 1000.0
20260905210056 95 102 6.0 0.0 0.00 0.00 0.00 28 1000.3
20260905204543 94 178 6.0 0.0 0.00 0.00 0.00 30 1000.6
20260905203046 93 99 6.0 0.0 0.00 0.00 0.00 32 1001.2
20260905201556 92 203 5.0 0.0 0.00 0.00 0.00 33 1001.3
20260905200020 93 141 6.0 0.0 0.00 0.00 0.00 33 1001.5
20260905194533 92 138 6.0 0.0 0.00 0.00 0.00 31 1001.5
20260905193059 92 168 5.0 0.0 0.00 0.00 0.00 35 1001.9
20260905193001 92 174 5.0 0.0 0.00 0.00 0.00 35 1001.9
20260905191509 92 214 6.0 0.0 0.00 0.00 0.00 34 1002.0
20260905190013 91 147 6.0 0.0 0.00 0.00 0.00 36 1002.1
20260905184530 91 192 4.0 0.0 0.00 0.00 0.00 37 1002.1
20260905183031 89 168 4.0 0.0 0.00 0.00 0.00 39 1002.4
20260905181555 89 164 4.0 0.0 0.00 0.00 0.00 38 1002.3
20260905180029 90 199 4.0 0.0 0.00 0.00 0.00 38 1002.4
20260905174532 90 178 4.0 0.0 0.00 0.00 0.00 40 1002.4
20260905173032 91 151 5.0 0.0 0.00 0.00 0.00 37 1002.0
20260905171600 91 138 4.0 0.0 0.00 0.00 0.00 37 1002.3
20260905170058 90 172 4.0 0.0 0.00 0.00 0.00 40 1001.9
20260905164558 90 162 4.0 0.0 0.00 0.00 0.00 40 1001.7
20260905163007 89 124 4.0 0.0 0.00 0.00 0.00 39 1001.7
20260905161538 87 135 6.0 0.0 0.00 0.00 0.00 41 1001.8
20260905160046 86 172 6.0 0.0 0.00 0.00 0.00 40 1001.8
20260905154552 85 262 7.0 0.0 0.00 0.00 0.00 42 1002.1
20260905153013 84 161 7.0 0.0 0.00 0.00 0.00 45 1001.8
20260905151517 83 188 7.0 0.0 0.00 0.00 0.00 46 1001.9
20260905150043 82 281 8.0 0.0 0.00 0.00 0.00 48 1001.7
20260905144512 80 220 6.0 0.0 0.00 0.00 0.00 52 1001.8
20260905143014 79 205 7.0 0.0 0.00 0.00 0.00 55 1001.9
20260905141525 77 205 5.0 0.0 0.00 0.00 0.00 56 1002.0
20260905140037 76 219 4.0 0.0 0.00 0.00 0.00 59 1001.7
20260905134548 74 251 6.0 0.0 0.00 0.00 0.00 61 1002.0
20260905133032 73 246 7.0 0.0 0.00 0.00 0.00 62 1002.0
20260905131556 72 205 5.0 0.0 0.00 0.00 0.00 63 1002.3
20260905130005 70 185 4.0 0.0 0.00 0.00 0.00 67 1001.5
20260905124512 69 203 4.0 0.0 0.00 0.00 0.00 69 1001.6
20260905123018 69 175 3.0 0.0 0.00 0.00 0.00 68 1001.6
20260905121530 70 182 4.0 0.0 0.00 0.00 0.00 67 1001.4
20260905120037 71 209 5.0 0.0 0.00 0.00 0.00 65 1000.8
20260905114538 70 209 5.0 0.0 0.00 0.00 0.00 67 1000.7
20260905113047 70 213 4.0 0.0 0.00 0.00 0.00 67 1000.9
20260905111554 70 190 3.0 0.0 0.00 0.00 0.00 65 1000.9
20260905110007 71 185 3.0 0.0 0.00 0.00 0.00 65 1000.9
20260905104525 71 190 4.0 0.0 0.00 0.00 0.00 63 1000.7
20260905103018 72 182 2.0 0.0 0.00 0.00 0.00 62 1000.8
20260905101527 72 199 3.0 0.0 0.00 0.00 0.00 60 1000.4
20260905100055 72 162 5.0 0.0 0.00 0.00 0.00 60 1000.0
20260905094519 72 179 5.0 0.0 0.00 0.00 0.00 59 1000.1
20260905093022 72 195 3.0 0.0 0.00 0.00 0.00 59 1000.3
20260905091557 72 193 4.0 0.0 0.00 0.00 0.00 59 1000.1
20260905090051 72 205 4.0 0.0 0.00 0.00 0.00 59 1000.6
20260905084522 73 198 6.0 0.0 0.00 0.00 0.00 58 1000.7
20260905083023 73 198 7.0 0.0 0.00 0.00 0.00 58 1000.5
20260905081533 73 244 9.0 0.0 0.00 0.00 0.00 58 1000.4
20260905080049 73 234 7.0 0.0 0.00 0.00 0.00 59 1000.7
20260905074559 73 234 7.0 0.0 0.00 0.00 0.00 56 1000.6
20260905074501 73 237 7.0 0.0 0.00 0.00 0.00 56 1000.6
20260905073101 74 193 6.0 0.0 0.00 0.00 0.00 54 1000.6
20260905073002 74 217 6.0 0.0 0.00 0.00 0.00 54 1000.6
20260905071511 74 193 6.0 0.0 0.00 0.00 0.00 53 1000.7
20260905070047 73 206 7.0 0.0 0.00 0.00 0.00 54 1000.7
20260905064556 74 199 7.0 0.0 0.00 0.00 0.00 52 1000.5
20260905063039 75 203 6.0 0.0 0.00 0.00 0.00 49 1000.7
20260905061613 75 186 6.0 0.0 0.00 0.00 0.00 50 1000.4
20260905061510 75 203 6.0 0.0 0.00 0.00 0.00 50 1000.4
20260905060048 74 210 5.0 0.0 0.00 0.00 0.00 52 1000.8
20260905054551 74 190 1.0 0.0 0.00 0.00 0.00 53 1000.9
20260905053055 75 126 2.0 0.0 0.00 0.00 0.00 51 1000.7
20260905051554 76 171 2.0 0.0 0.00 0.00 0.00 48 1000.6
20260905050056 77 207 3.0 0.0 0.00 0.00 0.00 46 1001.2
20260905044600 77 134 4.0 0.0 0.00 0.00 0.00 45 1001.3
20260905044505 77 207 4.0 0.0 0.00 0.00 0.00 45 1001.3
20260905043101 78 210 4.0 0.0 0.00 0.00 0.00 45 1001.4
20260905041558 78 188 4.0 0.0 0.00 0.00 0.00 45 1001.3
20260905040006 78 166 4.0 0.0 0.00 0.00 0.00 46 1001.8
20260905034530 79 198 3.0 0.0 0.00 0.00 0.00 45 1001.8
20260905033024 79 196 1.0 0.0 0.00 0.00 0.00 45 1001.5
20260905031514 79 142 2.0 0.0 0.00 0.00 0.00 44 1001.2
20260905030042 80 131 2.0 0.0 0.00 0.00 0.00 44 1001.6
20260905024543 81 182 2.0 0.0 0.00 0.00 0.00 42 1001.2
20260905023104 82 162 1.0 0.0 0.00 0.00 0.00 41 1001.0
20260905021506 83 198 2.0 0.0 0.00 0.00 0.00 39 1000.9